SCP
0 0 0 0 0 0 0 0 0 0 0 0 0 0 0 0 0 0 0 0 0 0 0 0 0 0 0 0 0 0 0 0 0 0 0 0 0 0
0 0 0 0 0 0 0 0 0 0 0 0 0 0 0 0 0 0 0 0 0 0 0 0 0 0 0 0 0 0 0 0 0 0 0 0 0 0
0 0 0 0 0 0 0 0 0 0 0 0 0 0 0 0 0 0 0 0 0 0 0 0 0 0 0 0 0 0 0 0 0 0 0 0 0 0
0 0 0 0 0 0 0 0 0 0 0 0 0 0 0 0 0 0 0 0 0 0 0 0 0 0 0 0 0 0 0 0 0 0 0 0 0 0
0 0 -0 0 0 0 0 0 0 0 0 0 0 0 0 0 0 0 0 0 0 0 0 0 0 0 0 0 0 0 0 0 0 0 0 0 0 0
0 0 0 0 0 0 0 0 0 0 0 0 0 0 0 0 0 0 0 0 0 0 0 0 0 0 0 0 0 0 0 0 0 0 0 0 0 0
0 0 0 0 0 0 0 0 0 0 0 0 0 0 0 0 0 0 0 0 0 0 0 0 0 0 0 0 0 0 0 0 0 0 0 0 0 0
0 0 0 0 0 0 0 0 0 0 0 0 0 0 0 0 0 0 0 0 0 0 0 0 0 0 0 0 0 0 0 0 0 0 0 0 0 0
0 0 0 0 0 0 0 0 0 0 0 0 0 0 0 0 0 0 0 0 0 0 0 0 0 0 0 0 0 0 0 0 0 0 0 0 0 0
0 0 0 0 0 0 0 0 0 0 0 0 0 0 0 0 0 0 0 0 0 0 0 0 0 0 0 0 0 0 0 0 0 0 0 0 0 0
0 0 0 0 0 0 0 0 0 0 0 0 0 0 0 0 0 0 0 0 0 0 0 0 0 0 0 0 0 0 0 0 0 0 0 0 0 0
0 0 0 0 0 0 0 0 0 0 0 0 0 0 0 0 0 0 0 0 0 0 0 0 0 0 0 0 0 0 0 0 0 0 0 0 0 0
0 0 0 0 0 0 0 0 0 0 0 0 0 0 0 0 0 0 0 0 0 0 0 0 0 0 0 0 0 0 0 0 0 0 0 0 0 0
0 0 0 0 0 0 0 0 0 0 0 0 0 0 0 0 0 0 0 0 0 0 0 0 0 0 0 0 0 0 0 0 0 0 0 0 0 0
0 0 0 0 0 0 0 0 0 0 0 0 0 0 0 0 0 0 0 0 0 0 0 0 0 0 0 0 0 0 0 0 0 0 0 0 0 0
0 0 0 0 0 0 0 0 0 0 0 0 0 0 0 0 0 0 0 0 0 0 0 0 0 0 0 0 0 0 0 0 0 0 0 0 0 0
0 0 0 0 0 0 0 0 0 0 0 0 0 0 0 0 0 0 0 0 0 0 0 0 0 0 0 0 0 0 0 0 0 0 0 0 0 0
0 0 0 0 0 0 0 0 0 0 0 0 0 0 0 0 0 0 0 0 0 0 0 0 0 0 0 0 0 0 0 0 0 0 0 0 0 0
0 0 0 0 0 0 0 0 0 0 0 0 0 0 0 0 0 0 0 0 0 0 0 0 0 0 0 0 0 0 0 0 0 0 0 0 0 0
0 0 0 0 0 0 0 0 0 0 0 0 0 0 0 0 0 0 0 0 0 0 0 0 0 0 0 0 0 0 0 0 0 0 0 0 0 0
0 0 0 0 0 0 0 0 0 0 0 0 0 0 0 0 0 0 0 0 0 0 0 0 0 0 0 0 0 0 0 0 0 0 0 0 0 0
0 0 0 0 0 0 0 0 0 0 0 0 0 0 0 0 0 0 0 0 0 0 0 0 0 0 0 0 0 0 0 0 0 0 0 0 0 0
0 0 0 0 0 0 0 0 0 0 0 0 0 0 0 0 0 0 0 0 0 0 0 0 0 0 0 0 0 0 0 0 0 0 0 0 0 0
Wind_Speed_500mb
81 71 65 67 61 45 32 26 25 24 31 33 35 37 40 44 39 39 51 46 51 59 62 62 69 66 67 72 70 61 57 65 73 70 77 80 84 86
78 71 60 64 58 55 46 43 39 33 38 40 35 35 41 43 45 47 48 56 56 55 61 71 69 70 68 67 68 72 83 91 83 87 91 92 94 95
75 66 52 48 53 49 48 48 49 49 56 63 63 58 50 52 58 65 68 64 69 78 85 89 94 89 91 88 86 93 105 94 92 97 103 108 107 103
56 59 52 66 61 53 44 50 51 55 57 56 60 64 69 69 73 79 82 81 83 95 92 98 102 105 96 113 116 107 107 111 110 111 108 106 104 105
41 49 58 61 62 64 65 61 59 61 66 71 80 78 79 84 87 83 78 71 72 69 67 65 71 79 80 82 87 88 93 95 99 100 101 104 104 110
43 43 46 48 48 47 56 64 64 65 71 73 75 70 62 57 62 65 62 64 65 62 63 65 71 72 71 77 87 91 93 100 105 105 107 111 115 119
39 38 47 49 53 52 49 52 57 62 59 56 57 56 61 66 57 54 53 54 55 53 51 56 63 70 72 79 80 74 69 67 73 75 78 80 75 77
36 41 44 45 48 49 52 50 55 55 56 58 56 49 37 35 46 48 49 49 51 58 61 56 55 59 66 69 73 80 84 87 89 90 85 86 90 90
41 43 43 44 43 35 38 44 47 54 62 62 58 57 55 57 55 54 54 50 48 52 52 57 54 53 62 59 58 57 55 56 56 57 58 56 49 43
30 30 30 31 36 42 39 40 39 39 38 39 35 31 33 34 34 36 34 33 34 34 34 28 32 35 38 40 42 44 45 43 42 40 38 38 38 38
30 32 32 33 31 29 27 26 23 19 15 13 11 10 8 10 11 13 14 13 16 19 18 18 24 26 24 22 24 27 34 40 39 39 39 38 40 41
12 10 7 6 4 2 3 4 6 2 2 5 7 5 7 8 8 10 12 13 11 14 18 20 21 25 14 19 33 40 47 44 46 48 45 43 39 37
22 21 21 17 15 10 8 9 9 8 5 5 7 9 10 9 9 11 12 13 15 16 21 22 21 26 19 23 26 32 41 51 53 46 46 46 46 47
29 29 28 24 21 18 16 16 13 9 8 7 7 9 10 13 15 15 15 17 16 18 20 22 20 22 25 26 23 29 33 31 37 31 35 51 53 49
27 27 24 20 18 15 16 14 10 9 10 12 15 15 16 18 17 14 13 16 18 24 33 29 25 22 19 20 29 30 32 35 23 31 48 50 55 52
21 19 15 11 10 11 10 9 9 8 9 9 10 12 12 11 18 17 14 12 7 9 18 30 34 31 25 26 30 32 29 31 43 48 53 58 53 44
13 11 11 11 9 8 7 7 6 7 9 9 7 8 12 16 15 19 17 12 9 16 18 25 35 33 20 21 30 32 40 44 47 54 59 58 49 44
10 12 14 13 11 10 10 10 8 8 8 9 10 10 10 14 14 14 19 16 12 11 17 23 32 39 35 16 15 33 43 49 48 50 60 61 65 62
11 13 13 11 9 7 6 8 10 9 9 12 13 11 8 8 14 14 16 22 19 14 17 19 27 32 39 45 41 27 40 47 45 63 60 61 74 72
10 10 10 9 7 7 8 10 11 10 8 8 14 13 9 8 12 16 15 25 21 18 20 15 23 32 37 39 45 48 35 45 53 56 65 68 67 74
9 7 4 3 2 10 10 7 15 18 13 11 14 16 13 8 12 13 13 17 16 19 23 23 30 27 26 35 40 45 45 42 42 55 56 63 68 81
8 7 7 7 6 5 10 13 7 13 18 11 13 16 12 4 11 12 13 19 18 19 23 28 33 18 26 30 41 48 52 58 45 42 42 53 59 76
1 0 10 13 9 9 10 12 13 12 17 15 14 11 6 7 15 10 10 16 19 20 26 34 31 23 27 25 39 48 54 51 56 69 71 58 54 50
Wind_Direction_500mb
196 196 202 207 207 211 201 203 199 218 206 221 236 230 231 240 250 262 273 270 270 268 268 267 266 265 266 262 265 266 279 282 273 272 280 285 284 284
200 196 202 204 211 219 226 235 230 236 241 234 225 245 260 255 253 262 272 269 273 276 270 277 275 267 267 268 262 265 278 281 273 277 282 285 285 282
186 193 201 205 222 225 228 235 245 244 247 253 257 256 251 255 261 269 278 277 279 283 275 274 269 269 270 266 269 270 276 276 276 278 279 285 286 282
200 214 208 221 227 223 230 245 249 251 250 256 266 267 267 267 270 270 275 278 277 281 280 275 266 271 275 268 273 276 276 275 275 276 278 278 277 277
216 222 229 233 237 240 244 248 254 254 264 272 277 279 279 282 285 285 286 288 283 284 285 289 283 273 272 272 272 272 273 274 274 273 275 276 279 278
230 234 235 242 246 245 248 252 258 262 268 272 276 278 282 285 284 285 283 286 289 288 279 269 268 269 265 264 267 271 274 275 274 276 275 276 278 278
237 240 248 253 253 258 257 258 261 265 273 271 277 282 289 285 274 262 263 264 265 262 263 268 275 279 273 273 275 273 281 286 285 290 289 290 292 291
221 231 242 250 254 254 259 258 257 252 258 257 253 254 245 259 263 265 275 279 284 268 274 281 274 277 286 290 287 288 287 287 289 291 296 296 299 301
229 234 242 245 244 243 257 266 262 260 262 264 264 270 275 277 278 283 287 289 286 281 283 283 283 287 285 289 293 297 302 307 311 312 313 317 321 322
221 218 223 233 243 250 252 255 256 258 264 272 275 279 286 286 289 291 291 288 287 286 292 293 287 293 295 297 299 302 307 312 314 317 319 319 318 317
227 233 239 243 245 255 257 257 257 263 280 294 304 317 328 336 331 322 301 292 294 306 318 316 315 315 312 305 311 319 323 321 320 318 316 314 313 313
142 122 134 163 151 203 240 207 231 201 307 337 345 353 2 21 27 13 7 352 355 328 341 337 328 342 340 328 334 331 330 329 329 325 320 318 315 308
113 108 104 104 107 105 103 116 114 121 108 68 49 44 40 33 22 10 4 353 349 343 328 327 317 321 320 303 321 320 327 329 331 334 328 325 323 323
109 104 98 89 86 86 86 83 80 75 73 60 41 30 12 359 354 350 349 346 340 341 343 334 325 320 322 318 324 307 313 326 326 322 315 316 316 320
98 95 88 83 79 80 79 74 62 45 30 15 14 11 5 354 352 355 1 2 10 353 331 336 334 329 315 300 295 305 328 325 299 293 306 307 315 323
92 91 92 77 63 55 54 49 33 16 8 7 7 5 354 354 352 358 4 11 29 310 325 330 331 332 328 326 323 328 309 310 303 302 302 304 311 322
92 100 101 90 78 52 42 35 21 8 2 358 352 358 355 352 359 347 344 346 351 338 339 332 326 328 325 319 313 318 316 317 315 316 318 319 316 309
83 79 73 75 61 49 33 15 15 9 358 342 335 339 345 345 350 349 337 338 327 327 336 337 336 327 328 332 310 315 315 322 326 325 327 324 319 317
75 73 78 80 58 33 20 359 350 352 347 333 329 333 344 359 345 337 335 329 333 349 356 341 335 326 330 332 324 340 338 333 323 324 326 323 322 325
82 79 72 65 36 357 353 345 337 337 331 332 331 332 341 350 338 336 344 333 351 4 329 333 330 328 335 332 325 330 337 320 326 324 321 321 320 322
74 78 97 93 41 335 349 353 347 345 342 338 331 324 335 342 335 328 334 329 348 339 331 334 322 316 329 324 322 326 328 326 319 320 323 323 323 317
89 17 346 338 346 356 335 328 295 299 314 313 314 316 334 13 328 329 339 338 338 330 331 313 315 336 333 327 329 328 327 322 329 329 315 316 319 316
101 94 324 314 289 272 264 279 308 296 296 297 284 297 340 9 310 316 342 319 323 330 315 319 336 339 330 330 332 326 326 336 335 323 323 327 328 321
Wind_Speed_850mb
81 71 65 67 61 45 32 26 25 24 31 33 35 37 40 44 39 39 51 46 51 59 62 62 69 66 67 72 70 61 57 65 73 70 77 80 84 86
78 71 60 64 58 55 46 43 39 33 38 40 35 35 41 43 45 47 48 56 56 55 61 71 69 70 68 67 68 72 83 91 83 87 91 92 94 95
75 66 52 48 53 49 48 48 49 49 56 63 63 58 50 52 58 65 68 64 69 78 85 89 94 89 91 88 86 93 105 94 92 97 103 108 107 103
56 59 52 66 61 53 44 50 51 55 57 56 60 64 69 69 73 79 82 81 83 95 92 98 102 105 96 113 116 107 107 111 110 111 108 106 104 105
41 49 58 61 62 64 65 61 59 61 66 71 80 78 79 84 87 83 78 71 72 69 67 65 71 79 80 82 87 88 93 95 99 100 101 104 104 110
43 43 46 48 48 47 56 64 64 65 71 73 75 70 62 57 62 65 62 64 65 62 63 65 71 72 71 77 87 91 93 100 105 105 107 111 115 119
39 38 47 49 53 52 49 52 57 62 59 56 57 56 61 66 57 54 53 54 55 53 51 56 63 70 72 79 80 74 69 67 73 75 78 80 75 77
36 41 44 45 48 49 52 50 55 55 56 58 56 49 37 35 46 48 49 49 51 58 61 56 55 59 66 69 73 80 84 87 89 90 85 86 90 90
41 43 43 44 43 35 38 44 47 54 62 62 58 57 55 57 55 54 54 50 48 52 52 57 54 53 62 59 58 57 55 56 56 57 58 56 49 43
30 30 30 31 36 42 39 40 39 39 38 39 35 31 33 34 34 36 34 33 34 34 34 28 32 35 38 40 42 44 45 43 42 40 38 38 38 38
30 32 32 33 31 29 27 26 23 19 15 13 11 10 8 10 11 13 14 13 16 19 18 18 24 26 24 22 24 27 34 40 39 39 39 38 40 41
12 10 7 6 4 2 3 4 6 2 2 5 7 5 7 8 8 10 12 13 11 14 18 20 21 25 14 19 33 40 47 44 46 48 45 43 39 37
22 21 21 17 15 10 8 9 9 8 5 5 7 9 10 9 9 11 12 13 15 16 21 22 21 26 19 23 26 32 41 51 53 46 46 46 46 47
29 29 28 24 21 18 16 16 13 9 8 7 7 9 10 13 15 15 15 17 16 18 20 22 20 22 25 26 23 29 33 31 37 31 35 51 53 49
27 27 24 20 18 15 16 14 10 9 10 12 15 15 16 18 17 14 13 16 18 24 33 29 25 22 19 20 29 30 32 35 23 31 48 50 55 52
21 19 15 11 10 11 10 9 9 8 9 9 10 12 12 11 18 17 14 12 7 9 18 30 34 31 25 26 30 32 29 31 43 48 53 58 53 44
13 11 11 11 9 8 7 7 6 7 9 9 7 8 12 16 15 19 17 12 9 16 18 25 35 33 20 21 30 32 40 44 47 54 59 58 49 44
10 12 14 13 11 10 10 10 8 8 8 9 10 10 10 14 14 14 19 16 12 11 17 23 32 39 35 16 15 33 43 49 48 50 60 61 65 62
11 13 13 11 9 7 6 8 10 9 9 12 13 11 8 8 14 14 16 22 19 14 17 19 27 32 39 45 41 27 40 47 45 63 60 61 74 72
10 10 10 9 7 7 8 10 11 10 8 8 14 13 9 8 12 16 15 25 21 18 20 15 23 32 37 39 45 48 35 45 53 56 65 68 67 74
9 7 4 3 2 10 10 7 15 18 13 11 14 16 13 8 12 13 13 17 16 19 23 23 30 27 26 35 40 45 45 42 42 55 56 63 68 81
8 7 7 7 6 5 10 13 7 13 18 11 13 16 12 4 11 12 13 19 18 19 23 28 33 18 26 30 41 48 52 58 45 42 42 53 59 76
1 0 10 13 9 9 10 12 13 12 17 15 14 11 6 7 15 10 10 16 19 20 26 34 31 23 27 25 39 48 54 51 56 69 71 58 54 50
Wind_Direction_850mb
196 196 202 207 207 211 201 203 199 218 206 221 236 230 231 240 250 262 273 270 270 268 268 267 266 265 266 262 265 266 279 282 273 272 280 285 284 284
200 196 202 204 211 219 226 235 230 236 241 234 225 245 260 255 253 262 272 269 273 276 270 277 275 267 267 268 262 265 278 281 273 277 282 285 285 282
186 193 201 205 222 225 228 235 245 244 247 253 257 256 251 255 261 269 278 277 279 283 275 274 269 269 270 266 269 270 276 276 276 278 279 285 286 282
200 214 208 221 227 223 230 245 249 251 250 256 266 267 267 267 270 270 275 278 277 281 280 275 266 271 275 268 273 276 276 275 275 276 278 278 277 277
216 222 229 233 237 240 244 248 254 254 264 272 277 279 279 282 285 285 286 288 283 284 285 289 283 273 272 272 272 272 273 274 274 273 275 276 279 278
230 234 235 242 246 245 248 252 258 262 268 272 276 278 282 285 284 285 283 286 289 288 279 269 268 269 265 264 267 271 274 275 274 276 275 276 278 278
237 240 248 253 253 258 257 258 261 265 273 271 277 282 289 285 274 262 263 264 265 262 263 268 275 279 273 273 275 273 281 286 285 290 289 290 292 291
221 231 242 250 254 254 259 258 257 252 258 257 253 254 245 259 263 265 275 279 284 268 274 281 274 277 286 290 287 288 287 287 289 291 296 296 299 301
229 234 242 245 244 243 257 266 262 260 262 264 264 270 275 277 278 283 287 289 286 281 283 283 283 287 285 289 293 297 302 307 311 312 313 317 321 322
221 218 223 233 243 250 252 255 256 258 264 272 275 279 286 286 289 291 291 288 287 286 292 293 287 293 295 297 299 302 307 312 314 317 319 319 318 317
227 233 239 243 245 255 257 257 257 263 280 294 304 317 328 336 331 322 301 292 294 306 318 316 315 315 312 305 311 319 323 321 320 318 316 314 313 313
142 122 134 163 151 203 240 207 231 201 307 337 345 353 2 21 27 13 7 352 355 328 341 337 328 342 340 328 334 331 330 329 329 325 320 318 315 308
113 108 104 104 107 105 103 116 114 121 108 68 49 44 40 33 22 10 4 353 349 343 328 327 317 321 320 303 321 320 327 329 331 334 328 325 323 323
109 104 98 89 86 86 86 83 80 75 73 60 41 30 12 359 354 350 349 346 340 341 343 334 325 320 322 318 324 307 313 326 326 322 315 316 316 320
98 95 88 83 79 80 79 74 62 45 30 15 14 11 5 354 352 355 1 2 10 353 331 336 334 329 315 300 295 305 328 325 299 293 306 307 315 323
92 91 92 77 63 55 54 49 33 16 8 7 7 5 354 354 352 358 4 11 29 310 325 330 331 332 328 326 323 328 309 310 303 302 302 304 311 322
92 100 101 90 78 52 42 35 21 8 2 358 352 358 355 352 359 347 344 346 351 338 339 332 326 328 325 319 313 318 316 317 315 316 318 319 316 309
83 79 73 75 61 49 33 15 15 9 358 342 335 339 345 345 350 349 337 338 327 327 336 337 336 327 328 332 310 315 315 322 326 325 327 324 319 317
75 73 78 80 58 33 20 359 350 352 347 333 329 333 344 359 345 337 335 329 333 349 356 341 335 326 330 332 324 340 338 333 323 324 326 323 322 325
82 79 72 65 36 357 353 345 337 337 331 332 331 332 341 350 338 336 344 333 351 4 329 333 330 328 335 332 325 330 337 320 326 324 321 321 320 322
74 78 97 93 41 335 349 353 347 345 342 338 331 324 335 342 335 328 334 329 348 339 331 334 322 316 329 324 322 326 328 326 319 320 323 323 323 317
89 17 346 338 346 356 335 328 295 299 314 313 314 316 334 13 328 329 339 338 338 330 331 313 315 336 333 327 329 328 327 322 329 329 315 316 319 316
101 94 324 314 289 272 264 279 308 296 296 297 284 297 340 9 310 316 342 319 323 330 315 319 336 339 330 330 332 326 326 336 335 323 323 327 328 321